Precipitable_Water
0.70 0.66 0.69 0.76 0.53 0.44 0.40 0.43 0.50 0.64 0.78 0.94 0.96 0.91 0.96 1.03 1.12 1.10 1.07 1.01 1.03 1.13 1.23 1.38 1.44 1.44 1.46 1.46 1.42 1.49 1.55 1.62 1.63 1.64 1.60 1.65 1.66 1.70 1.76 1.75 1.81 1.92 2.06 2.13
0.67 0.62 0.76 0.63 0.47 0.40 0.38 0.34 0.42 0.64 0.64 0.85 0.85 0.94 0.99 1.01 1.06 1.14 1.09 1.07 1.02 1.10 1.19 1.30 1.37 1.45 1.44 1.44 1.50 1.55 1.60 1.66 1.65 1.66 1.68 1.70 1.68 1.68 1.77 1.85 1.94 2.01 2.06 1.99
0.59 0.66 0.66 0.53 0.42 0.35 0.31 0.31 0.36 0.45 0.59 0.86 0.75 0.85 0.98 1.00 1.06 1.16 1.22 1.18 1.08 1.05 1.12 1.21 1.29 1.37 1.45 1.46 1.51 1.56 1.62 1.67 1.66 1.72 1.67 1.63 1.71 1.80 1.74 1.83 1.92 1.92 2.01 1.94
0.54 0.66 0.59 0.51 0.43 0.35 0.28 0.28 0.32 0.43 0.49 0.55 0.57 0.55 0.86 0.94 0.93 1.06 1.18 1.20 1.12 1.02 1.13 1.19 1.23 1.30 1.39 1.46 1.53 1.59 1.62 1.67 1.71 1.68 1.63 1.60 1.61 1.61 1.71 1.80 1.92 2.01 1.92 1.76
0.43 0.46 0.46 0.43 0.44 0.37 0.27 0.27 0.28 0.35 0.38 0.43 0.57 0.63 0.84 0.82 0.83 0.94 1.12 1.22 1.24 1.11 1.05 1.16 1.21 1.27 1.33 1.42 1.46 1.54 1.62 1.66 1.69 1.70 1.61 1.65 1.64 1.72 1.81 1.86 2.08 1.90 1.74 1.67
0.45 0.41 0.36 0.41 0.43 0.37 0.31 0.27 0.29 0.33 0.36 0.42 0.45 0.52 0.83 0.76 0.83 0.91 1.06 1.19 1.27 1.23 1.06 1.09 1.21 1.28 1.28 1.38 1.43 1.49 1.57 1.61 1.69 1.69 1.63 1.63 1.67 1.66 1.75 1.79 1.92 1.68 1.64 1.65
0.23 0.28 0.36 0.41 0.37 0.40 0.31 0.25 0.23 0.24 0.32 0.45 0.48 0.56 0.75 0.76 0.80 0.93 0.95 1.10 1.28 1.28 1.16 1.08 1.14 1.19 1.23 1.27 1.36 1.45 1.51 1.52 1.62 1.60 1.59 1.60 1.60 1.61 1.70 1.89 1.84 1.83 1.65 1.53
0.18 0.16 0.18 0.34 0.33 0.39 0.36 0.28 0.25 0.23 0.28 0.43 0.39 0.51 0.61 0.89 0.85 0.84 0.98 1.09 1.18 1.31 1.27 1.14 1.16 1.23 1.23 1.25 1.34 1.39 1.45 1.48 1.53 1.53 1.51 1.58 1.60 1.57 1.66 1.69 1.73 1.74 1.76 1.63
0.22 0.21 0.22 0.22 0.28 0.34 0.30 0.27 0.30 0.22 0.21 0.26 0.49 0.83 0.88 0.94 0.90 0.85 0.92 1.01 1.09 1.27 1.30 1.24 1.19 1.22 1.22 1.23 1.29 1.33 1.37 1.45 1.53 1.54 1.56 1.53 1.57 1.56 1.59 1.63 1.62 1.66 1.72 1.72
0.30 0.25 0.23 0.24 0.18 0.22 0.29 0.35 0.21 0.17 0.23 0.24 0.43 0.65 0.54 0.70 0.77 0.97 0.94 1.02 1.09 1.19 1.30 1.32 1.32 1.24 1.26 1.25 1.29 1.29 1.33 1.37 1.48 1.53 1.56 1.55 1.53 1.53 1.49 1.52 1.52 1.52 1.63 1.77
0.29 0.23 0.29 0.25 0.21 0.28 0.21 0.20 0.21 0.26 0.23 0.22 0.25 0.57 0.71 0.65 0.69 0.88 1.02 1.12 1.14 1.13 1.21 1.30 1.32 1.34 1.34 1.33 1.30 1.26 1.33 1.38 1.46 1.54 1.54 1.53 1.51 1.51 1.48 1.40 1.42 1.43 1.48 1.62
0.30 0.26 0.30 0.31 0.42 0.41 0.34 0.40 0.33 0.25 0.33 0.28 0.28 0.57 0.81 0.73 0.67 0.82 1.05 1.12 1.27 1.26 1.20 1.28 1.33 1.33 1.33 1.31 1.29 1.29 1.40 1.42 1.48 1.55 1.56 1.57 1.58 1.54 1.49 1.46 1.40 1.41 1.40 1.48
0.37 0.23 0.27 0.34 0.33 0.31 0.29 0.35 0.30 0.30 0.29 0.27 0.27 0.57 0.93 0.86 0.81 0.86 1.06 1.20 1.19 1.25 1.36 1.34 1.36 1.34 1.35 1.33 1.27 1.29 1.37 1.42 1.46 1.54 1.51 1.53 1.54 1.52 1.48 1.46 1.47 1.41 1.41 1.44
0.42 0.27 0.30 0.38 0.42 0.40 0.32 0.40 0.36 0.30 0.26 0.36 0.41 0.64 0.91 0.85 0.77 0.79 0.98 1.24 1.14 1.18 1.31 1.42 1.41 1.43 1.44 1.41 1.39 1.35 1.38 1.42 1.44 1.44 1.42 1.42 1.47 1.49 1.49 1.50 1.51 1.52 1.49 1.46
0.45 0.36 0.41 0.39 0.49 0.44 0.43 0.43 0.43 0.37 0.36 0.39 0.43 0.47 0.86 0.83 0.75 0.83 0.99 1.13 1.32 1.26 1.31 1.42 1.49 1.53 1.56 1.55 1.48 1.42 1.43 1.47 1.45 1.40 1.36 1.33 1.37 1.43 1.46 1.47 1.49 1.53 1.60 1.63
0.53 0.40 0.49 0.41 0.43 0.40 0.38 0.41 0.42 0.45 0.44 0.45 0.41 0.55 0.97 0.99 0.86 0.92 0.99 1.06 1.19 1.32 1.52 1.52 1.47 1.53 1.58 1.63 1.61 1.54 1.51 1.53 1.57 1.51 1.40 1.45 1.48 1.43 1.42 1.45 1.49 1.55 1.56 1.63
0.47 0.46 0.47 0.39 0.44 0.46 0.38 0.42 0.43 0.48 0.57 0.54 0.46 0.84 0.94 0.87 0.73 0.81 0.96 1.11 1.17 1.23 1.36 1.43 1.63 1.77 1.92 1.87 1.80 1.64 1.68 1.75 1.72 1.71 1.74 1.74 1.73 1.62 1.55 1.51 1.51 1.51 1.54 1.61
0.40 0.42 0.44 0.39 0.44 0.39 0.49 0.67 0.60 0.56 0.54 0.65 0.67 0.81 0.84 0.79 0.82 0.86 0.92 0.99 1.18 1.25 1.28 1.30 1.38 1.53 1.78 1.96 1.85 1.97 1.83 1.88 1.86 1.85 1.83 1.82 1.78 1.75 1.78 1.75 1.66 1.64 1.70 1.72
0.45 0.39 0.34 0.32 0.37 0.42 0.49 0.55 0.52 0.50 0.51 0.75 0.74 0.82 0.90 0.88 0.89 0.91 1.03 1.00 1.08 1.26 1.24 1.28 1.32 1.32 1.44 1.61 1.74 1.68 1.65 1.70 1.72 1.64 1.87 1.93 1.99 1.92 1.92 1.88 1.88 1.89 1.88 1.89
0.44 0.42 0.33 0.34 0.35 0.33 0.66 0.78 0.75 0.62 0.40 0.84 0.79 0.79 0.87 0.86 0.63 1.06 1.20 1.06 1.05 1.13 1.21 1.28 1.30 1.32 1.31 1.37 1.47 1.49 1.60 1.58 1.52 1.70 1.93 2.11 2.17 2.05 2.02 1.99 1.98 2.05 2.05 2.00
0.45 0.39 0.31 0.31 0.32 0.45 0.71 0.72 0.70 0.43 0.59 0.88 0.89 0.88 0.85 0.76 0.87 0.95 1.02 1.02 1.11 1.18 1.19 1.22 1.23 1.24 1.29 1.33 1.32 1.30 1.32 1.36 1.47 1.70 1.91 1.78 2.48 2.25 2.40 2.26 2.28 2.14 2.13 2.07
0.48 0.46 0.43 0.38 0.37 0.39 0.76 0.67 0.50 0.79 0.88 0.88 0.90 0.93 0.88 0.87 0.87 0.88 0.94 1.04 1.10 1.14 1.15 1.19 1.17 1.18 1.17 1.20 1.15 1.18 1.19 1.30 1.27 1.53 1.66 1.74 1.95 1.90 1.72 2.15 1.85 1.86 1.91 1.92
0.38 0.54 0.59 0.56 0.69 0.83 0.81 0.81 0.84 0.80 0.78 0.83 0.84 0.87 0.88 0.84 0.88 0.90 0.92 1.01 1.06 1.10 1.13 1.16 1.13 1.20 1.23 1.16 1.16 1.06 1.10 1.18 1.24 1.36 1.42 1.68 1.81 1.72 1.90 1.80 1.55 1.46 1.46 1.43
0.64 0.65 0.49 0.54 0.61 0.69 0.73 0.75 0.74 0.74 0.76 0.78 0.79 0.80 0.86 0.85 0.94 1.02 1.09 1.11 1.13 1.17 1.18 1.20 1.19 1.23 1.15 1.13 1.17 1.20 1.26 1.28 1.50 1.64 1.66 1.86 1.91 1.74 1.74 1.64 1.50 1.47 1.43 1.43
0.62 0.77 0.55 0.53 0.68 0.75 0.71 0.72 0.74 0.75 0.79 0.78 0.83 0.89 0.89 1.03 1.12 1.16 1.13 1.14 1.21 1.20 1.20 1.21 1.22 1.25 1.28 1.30 1.30 1.37 1.45 1.67 1.72 1.83 1.75 1.73 1.71 1.63 1.60 1.55 1.53 1.53 1.51 1.49
0.54 0.53 0.50 0.54 0.75 0.73 0.84 0.87 0.76 0.81 0.85 0.89 0.94 0.95 1.07 1.11 1.15 1.24 1.19 1.17 1.17 1.23 1.25 1.17 1.25 1.28 1.34 1.41 1.43 1.47 1.64 1.66 1.57 1.67 1.79 1.73 1.64 1.60 1.44 1.37 1.33 1.45 1.42 1.45
Wind_Speed
11 9 8 3 1 1 2 2 5 6 5 5 5 7 8 9 9 10 12 14 14 15 15 16 15 15 14 13 13 12 11 11 10 9 8 7 6 5 4 4 3 2 3 3
11 12 5 2 2 2 1 3 3 4 3 3 3 5 7 9 10 11 11 13 15 15 16 17 16 16 15 14 13 12 12 11 10 9 8 7 5 5 4 3 3 3 2 2
15 7 4 6 4 5 3 4 3 5 2 4 3 5 8 8 9 10 11 12 13 16 17 18 17 17 15 15 14 13 12 11 10 9 8 7 6 5 5 5 4 3 2 1
15 12 9 10 8 5 2 2 4 5 8 4 2 9 15 11 9 10 11 13 13 15 17 18 18 17 16 15 14 13 13 12 11 10 8 8 6 6 5 5 5 3 2 1
13 13 13 13 11 5 7 5 7 8 10 11 5 1 8 10 9 9 11 13 14 14 16 18 19 18 17 16 15 14 14 13 12 11 10 9 8 6 5 5 5 4 2 2
16 8 10 11 8 9 8 8 11 9 9 7 5 5 8 7 6 8 10 11 14 13 16 17 18 18 17 16 16 15 14 13 13 12 11 10 9 8 7 7 5 4 3 2
15 16 14 14 12 11 9 11 10 11 7 3 7 6 3 8 3 6 9 11 13 14 14 16 17 17 17 17 16 15 14 14 13 13 12 11 10 9 9 7 7 5 4 3
10 14 16 16 14 13 11 11 7 2 6 5 3 2 6 7 4 2 6 9 11 12 13 15 16 16 16 17 17 16 15 14 14 13 13 12 11 10 9 9 7 7 5 4
4 7 5 8 12 13 12 9 10 9 7 8 4 16 12 10 10 5 5 7 9 12 15 13 14 15 15 16 16 16 15 15 14 14 14 13 13 12 11 10 9 8 7 5
6 6 6 6 12 13 14 9 7 7 3 7 7 10 7 4 8 7 3 4 7 11 14 13 13 15 14 14 15 15 15 15 15 14 14 14 14 14 13 12 11 10 9 8
12 10 7 8 11 11 9 11 10 5 5 6 5 3 4 4 4 4 5 0 6 8 12 14 13 15 15 15 15 16 15 15 15 15 15 14 14 14 14 13 13 12 12 11
13 8 7 9 6 8 8 5 8 8 8 8 7 1 1 3 4 3 3 3 2 7 10 13 14 14 14 15 15 16 16 16 16 17 16 16 15 15 14 14 14 13 13 13
9 11 7 8 9 11 11 8 9 9 7 6 7 5 2 4 3 4 4 5 5 7 8 11 14 15 14 15 15 16 16 16 17 18 19 18 17 17 16 15 14 14 14 14
8 13 14 1 6 6 14 10 8 10 9 5 2 6 4 5 5 7 8 8 7 8 10 11 11 14 14 15 15 15 17 18 18 18 19 20 19 18 18 17 16 15 15 15
7 11 9 9 7 9 6 7 9 12 11 10 11 9 7 7 8 9 9 9 8 6 8 11 13 12 13 14 16 16 17 18 19 19 20 20 20 19 19 19 18 18 17 17
10 11 6 11 8 11 11 13 12 11 12 12 15 9 8 7 9 9 9 9 9 9 8 9 12 15 16 16 16 17 18 18 18 19 20 19 20 20 20 20 20 19 19 19
12 12 11 13 12 11 13 16 16 14 10 11 10 5 7 7 7 9 10 10 11 10 10 11 11 13 15 12 11 13 15 18 19 19 20 20 20 21 21 20 20 20 20 20
14 14 13 14 14 14 12 6 9 10 12 10 11 9 10 9 9 9 10 11 12 12 12 12 14 14 14 14 11 9 10 12 14 18 21 21 21 21 21 21 21 21 21 21
13 15 16 16 16 17 14 14 13 11 9 8 10 11 9 11 11 12 11 11 12 13 14 15 15 15 15 15 13 12 11 12 12 16 20 21 22 23 23 23 23 22 22 23
9 12 14 13 13 15 5 6 8 9 14 9 12 11 11 13 14 8 12 13 14 15 16 17 18 19 20 20 21 22 23 14 16 16 27 21 23 24 24 24 24 23 24 25
6 8 12 13 13 8 7 9 9 13 9 9 10 11 12 14 13 15 15 16 18 19 20 21 22 23 24 25 27 25 26 28 19 17 17 28 9 14 18 20 21 21 22 23
7 7 8 10 12 13 6 8 10 7 9 10 11 12 13 15 16 16 17 18 19 20 22 24 25 25 23 23 23 23 23 23 26 29 23 21 19 15 16 17 17 18 20 21
8 8 6 6 4 6 7 7 8 10 12 12 14 14 14 15 14 15 15 15 17 19 20 21 23 25 24 23 21 23 23 24 24 24 26 25 21 19 18 17 17 17 18 19
8 11 10 9 9 8 9 11 12 12 13 14 14 14 13 13 13 13 12 12 14 15 16 17 18 19 19 20 20 20 21 21 21 22 22 20 18 19 19 19 18 18 19 20
8 8 10 14 12 9 11 11 11 11 11 11 11 11 11 10 9 8 8 8 9 9 10 11 11 13 15 17 18 19 17 14 13 12 14 17 18 18 19 18 17 17 17 18
15 14 13 8 8 11 7 9 9 8 7 7 7 7 7 7 7 7 8 8 9 9 9 9 9 9 10 11 11 11 12 11 11 12 13 13 14 14 13 13 13 13 14 15
Wind_Direction
201 219 215 266 43 358 332 26 76 74 110 162 176 156 166 175 185 180 184 185 187 186 184 181 183 181 179 179 180 183 185 184 186 186 188 193 198 202 211 225 231 262 299 305
210 220 248 198 236 247 249 291 74 88 135 216 151 190 174 181 189 188 190 192 193 193 188 188 189 188 187 186 187 187 188 188 191 192 195 200 205 214 222 225 223 265 295 322
214 203 198 212 239 258 201 13 359 344 232 240 145 355 193 196 192 196 198 198 198 199 195 194 194 195 195 193 195 195 195 196 198 201 201 204 216 227 232 235 241 243 253 299
217 238 219 224 242 234 8 295 300 287 296 204 214 235 225 185 188 197 201 202 200 200 203 198 198 200 200 200 202 203 203 204 204 205 209 212 219 225 231 232 216 205 237 254
219 221 222 225 233 243 295 297 286 288 285 274 263 97 157 165 182 192 200 201 203 203 203 203 203 202 204 204 206 207 208 209 210 210 216 216 223 223 219 201 195 217 217 210
233 215 223 228 231 232 267 279 268 258 253 307 322 84 263 152 187 194 195 199 200 203 205 206 203 203 207 207 207 206 208 211 213 216 217 221 221 221 211 206 201 206 199 187
219 234 227 224 236 230 239 262 284 242 233 233 223 49 196 81 77 180 194 196 195 199 205 203 201 203 205 207 206 207 210 214 216 217 218 219 219 216 215 210 209 212 205 206
218 220 218 216 226 235 242 267 272 273 313 263 236 323 292 43 51 75 166 185 194 197 187 199 200 205 207 209 209 212 212 214 213 215 216 218 216 214 212 212 218 217 219 214
236 221 208 216 224 226 228 231 263 274 263 258 219 139 59 51 46 87 121 169 186 195 189 199 202 204 204 207 211 213 214 214 215 218 218 218 216 216 216 217 217 218 214 209
245 216 201 205 219 226 241 275 242 226 247 259 289 119 165 37 31 36 86 157 180 193 198 202 206 204 205 206 209 212 213 214 217 218 215 217 218 220 222 221 222 222 222 226
233 234 188 208 209 204 200 223 228 285 259 279 249 68 27 19 17 16 13 134 191 198 204 206 210 210 211 213 213 213 216 217 217 216 216 217 218 220 219 223 225 228 231 235
218 236 214 177 207 224 243 290 228 240 220 248 272 187 345 334 346 338 336 315 303 207 210 213 210 213 215 218 220 221 221 221 221 222 221 220 220 220 220 224 228 231 235 240
207 223 216 242 208 217 235 215 249 270 282 284 277 180 305 320 330 318 305 288 260 244 224 219 217 215 219 221 222 222 223 224 225 224 223 222 221 222 224 227 232 235 239 242
229 232 259 355 286 233 213 228 239 261 265 314 65 143 297 307 302 298 294 289 271 245 233 229 227 220 222 224 224 222 225 227 227 224 223 223 223 225 229 232 235 238 242 245
231 249 245 258 248 249 242 232 240 252 276 267 292 300 282 297 297 284 279 268 272 262 236 225 228 223 224 225 227 227 226 226 225 224 223 223 227 230 233 236 239 242 245 249
247 247 261 253 235 253 255 250 251 265 265 263 267 258 265 265 278 272 265 269 263 255 253 242 236 234 230 229 229 229 229 230 229 228 227 229 230 233 236 238 242 244 247 252
256 254 259 250 261 244 250 253 255 247 269 266 273 251 259 270 280 273 263 260 254 252 246 241 241 245 233 223 225 231 237 237 237 237 238 240 240 240 240 240 241 244 248 252
249 253 252 260 267 247 249 257 264 264 268 263 259 259 269 270 271 273 269 259 248 247 246 248 246 253 253 223 223 235 249 241 240 241 241 241 241 241 243 244 245 247 251 255
247 247 251 256 252 258 256 248 255 261 271 242 257 254 260 264 268 264 259 260 251 247 246 247 251 253 255 255 249 239 261 246 257 256 245 242 243 243 244 246 248 250 253 256
248 236 241 242 254 259 223 259 261 259 258 249 263 262 268 269 274 260 259 262 253 249 248 254 258 259 261 265 269 262 250 265 263 256 244 252 237 242 245 247 250 253 255 257
225 243 235 236 246 243 249 255 258 256 257 264 264 266 268 274 276 277 273 265 261 259 258 259 262 264 266 270 269 270 265 254 262 255 249 254 293 237 240 247 250 254 260 266
246 246 234 241 247 241 248 259 265 261 257 267 269 268 273 279 280 278 274 269 266 265 262 259 262 263 267 269 272 270 268 269 262 246 259 266 258 261 253 248 253 258 263 265
250 248 270 273 261 248 266 272 269 275 275 273 272 273 276 278 278 280 278 272 270 270 268 268 265 264 260 264 272 275 272 267 262 259 253 260 257 250 256 260 259 264 268 270
249 256 255 267 240 255 266 272 273 277 276 277 274 272 272 277 283 283 284 284 279 276 274 271 267 259 262 262 263 273 278 269 265 255 247 247 250 249 254 259 264 267 269 271
271 257 258 259 256 263 268 273 279 281 282 279 274 265 265 273 285 286 287 295 298 290 281 279 274 267 261 262 266 272 274 266 255 247 242 247 250 254 257 259 264 267 272 275
255 251 252 269 280 247 265 270 279 276 279 278 272 255 261 269 273 282 286 282 274 293 291 288 282 273 266 261 258 267 258 248 248 253 252 246 249 247 250 253 257 268 275 279